When you browse on this site, cookies collect data to enhance your experience and personalize the content and advertising you see.
Visit our Privacy Policy to learn more. By continuing to use the site, you agree to this use of cookies and data.
  • En España
  • Lista de países
  • Para 7 días
  • Temperatura del agua
  • Mapa Satelital
  • El tiempo en el mapa
  • Informadores
  • user-avatar
    Iniciar sesión

    Tiempo cada hora Stara Zagora

    Hoy, 18 Enero, Viernes

    Tiempo Temperatura Precipitaciones Viento Presión Humedad
    00:00 +3°C° 0 mm 0 mps 742 mmHg 74%
    01:00 +2°C° 0 mm 0 mps 742 mmHg 75%
    02:00 +2°C° 0 mm 0 mps 742 mmHg 73%
    03:00 +2°C° 0 mm 0 mps 742 mmHg 74%
    04:00 +2°C° 0 mm 0 mps 742 mmHg 74%
    05:00 +2°C° 0 mm 0 mps 742 mmHg 75%
    06:00 +2°C° 0 mm 0 mps 742 mmHg 75%
    07:00 +2°C° 0 mm 0 mps 742 mmHg 75%
    08:00 +2°C° 0 mm 0 mps 741 mmHg 71%
    09:00 +5°C° 0 mm 1 mps 741 mmHg 66%
    10:00 +6°C° 0 mm 1 mps 742 mmHg 60%
    11:00 +8°C° 0 mm 1 mps 742 mmHg 55%
    12:00 +8°C° 0 mm 1 mps 742 mmHg 53%
    13:00 +9°C° 0 mm 1 mps 741 mmHg 51%
    14:00 +10°C° 0 mm 1 mps 741 mmHg 49%
    15:00 +9°C° 0 mm 1 mps 741 mmHg 54%
    16:00 +7°C° 0 mm 1 mps 741 mmHg 59%
    17:00 +5°C° 0 mm 0 mps 741 mmHg 63%
    18:00 +5°C° 0 mm 0 mps 741 mmHg 63%
    19:00 +4°C° 0 mm 0 mps 741 mmHg 63%
    20:00 +5°C° 0 mm 1 mps 741 mmHg 63%
    21:00 +5°C° 0 mm 1 mps 741 mmHg 62%
    22:00 +5°C° 0 mm 1 mps 741 mmHg 62%
    23:00 +4°C° 0 mm 1 mps 742 mmHg 61%

    Mañana, 19 Enero, Sábado

    Tiempo Temperatura Precipitaciones Viento Presión Humedad
    00:00 +4°C° 0 mm 1 mps 742 mmHg 60%
    01:00 +4°C° 0 mm 1 mps 742 mmHg 60%
    02:00 +4°C° 0 mm 1 mps 742 mmHg 60%
    03:00 +4°C° 0 mm 1 mps 742 mmHg 60%
    04:00 +4°C° 0 mm 1 mps 742 mmHg 61%
    05:00 +4°C° 0 mm 1 mps 742 mmHg 61%
    06:00 +4°C° 0 mm 1 mps 743 mmHg 63%
    07:00 +4°C° 0 mm 1 mps 743 mmHg 65%
    08:00 +4°C° 0 mm 1 mps 743 mmHg 68%
    09:00 +5°C° 0 mm 1 mps 744 mmHg 65%
    10:00 +7°C° 0 mm 1 mps 744 mmHg 63%
    11:00 +8°C° 0 mm 1 mps 745 mmHg 61%
    12:00 +9°C° 0 mm 1 mps 744 mmHg 60%
    13:00 +8°C° 0 mm 2 mps 744 mmHg 60%
    14:00 +9°C° 0 mm 3 mps 744 mmHg 59%
    15:00 +8°C° 0 mm 3 mps 744 mmHg 65%
    16:00 +7°C° 0 mm 3 mps 744 mmHg 71%
    17:00 +5°C° 0 mm 3 mps 744 mmHg 77%
    18:00 +4°C° 0 mm 3 mps 744 mmHg 82%
    19:00 +3°C° 0 mm 3 mps 745 mmHg 86%
    20:00 +2°C° 0 mm 3 mps 745 mmHg 90%
    21:00 +2°C° 0.1 mm 3 mps 745 mmHg 90%
    22:00 +3°C° 0.1 mm 3 mps 745 mmHg 91%
    23:00 +3°C° 0.1 mm 3 mps 745 mmHg 91%

    Pasado mañana, 20 Enero, Domingo

    Tiempo Temperatura Precipitaciones Viento Presión Humedad
    00:00 +3°C° 0.2 mm 3 mps 745 mmHg 92%
    01:00 +4°C° 0.2 mm 2 mps 744 mmHg 93%
    02:00 +4°C° 0.2 mm 2 mps 744 mmHg 94%
    03:00 +4°C° 0.1 mm 2 mps 744 mmHg 94%
    04:00 +4°C° 0.1 mm 2 mps 744 mmHg 95%
    05:00 +4°C° 0.1 mm 2 mps 743 mmHg 96%
    06:00 +4°C° 0 mm 2 mps 743 mmHg 96%
    07:00 +4°C° 0 mm 2 mps 743 mmHg 96%
    08:00 +5°C° 0 mm 1 mps 743 mmHg 97%
    09:00 +6°C° 0 mm 1 mps 743 mmHg 95%
    10:00 +6°C° 0 mm 1 mps 743 mmHg 94%
    11:00 +7°C° 0 mm 1 mps 743 mmHg 93%
    12:00 +7°C° 0 mm 1 mps 742 mmHg 91%
    13:00 +8°C° 0 mm 1 mps 742 mmHg 89%
    14:00 +9°C° 0 mm 1 mps 741 mmHg 87%
    15:00 +8°C° 0 mm 1 mps 741 mmHg 89%
    16:00 +8°C° 0 mm 1 mps 741 mmHg 91%
    17:00 +8°C° 0 mm 1 mps 740 mmHg 93%
    18:00 +7°C° 0 mm 1 mps 740 mmHg 94%
    19:00 +7°C° 0 mm 1 mps 741 mmHg 95%
    20:00 +7°C° 0 mm 1 mps 741 mmHg 95%
    21:00 +7°C° 0 mm 1 mps 741 mmHg 95%
    22:00 +6°C° 0 mm 0 mps 741 mmHg 95%
    23:00 +6°C° 0 mm 0 mps 741 mmHg 95%

    21 Enero, Lunes

    Tiempo Temperatura Precipitaciones Viento Presión Humedad
    00:00 +5°C° 0.1 mm 0 mps 741 mmHg 95%
    01:00 +6°C° 0.1 mm 1 mps 741 mmHg 94%
    02:00 +6°C° 0.1 mm 1 mps 741 mmHg 94%
    03:00 +6°C° 0 mm 1 mps 741 mmHg 93%
    04:00 +5°C° 0 mm 1 mps 741 mmHg 92%
    05:00 +4°C° 0 mm 2 mps 741 mmHg 91%
    06:00 +4°C° 0 mm 2 mps 741 mmHg 90%
    07:00 +4°C° 0 mm 2 mps 742 mmHg 89%
    08:00 +3°C° 0 mm 2 mps 742 mmHg 88%
    09:00 +4°C° 0 mm 2 mps 742 mmHg 82%
    10:00 +6°C° 0 mm 2 mps 743 mmHg 76%
    11:00 +7°C° 0 mm 2 mps 743 mmHg 69%
    12:00 +7°C° 0 mm 2 mps 743 mmHg 66%
    13:00 +8°C° 0 mm 2 mps 743 mmHg 63%
    14:00 +10°C° 0 mm 1 mps 743 mmHg 60%
    15:00 +8°C° 0 mm 2 mps 743 mmHg 64%
    16:00 +7°C° 0 mm 2 mps 744 mmHg 67%
    17:00 +6°C° 0 mm 2 mps 744 mmHg 71%
    18:00 +6°C° 0 mm 2 mps 745 mmHg 72%
    19:00 +5°C° 0 mm 2 mps 745 mmHg 74%
    20:00 +5°C° 0 mm 2 mps 746 mmHg 75%
    21:00 +4°C° 0 mm 2 mps 746 mmHg 76%
    22:00 +4°C° 0 mm 2 mps 746 mmHg 77%
    23:00 +4°C° 0 mm 2 mps 747 mmHg 78%

    22 Enero, Martes

    Tiempo Temperatura Precipitaciones Viento Presión Humedad
    00:00 +3°C° 0 mm 2 mps 747 mmHg 79%
    01:00 +3°C° 0 mm 2 mps 747 mmHg 80%
    02:00 +3°C° 0 mm 2 mps 747 mmHg 82%
    03:00 +2°C° 0 mm 2 mps 746 mmHg 82%
    04:00 +2°C° 0 mm 2 mps 746 mmHg 82%
    05:00 +2°C° 0 mm 2 mps 746 mmHg 83%
    06:00 +1°C° 0 mm 2 mps 746 mmHg 83%
    07:00 +1°C° 0 mm 2 mps 746 mmHg 83%
    08:00 -1°C° 0 mm 2 mps 746 mmHg 82%
    09:00 +1°C° 0 mm 2 mps 746 mmHg 81%
    10:00 +1°C° 0 mm 2 mps 746 mmHg 79%
    11:00 +2°C° 0 mm 2 mps 746 mmHg 78%
    12:00 +2°C° 0 mm 2 mps 745 mmHg 77%
    13:00 +3°C° 0 mm 2 mps 744 mmHg 77%
    14:00 +4°C° 0 mm 2 mps 744 mmHg 77%
    15:00 +3°C° 0 mm 2 mps 743 mmHg 79%
    16:00 +3°C° 0 mm 2 mps 742 mmHg 81%
    17:00 +2°C° 0 mm 3 mps 742 mmHg 83%
    18:00 +2°C° 0 mm 3 mps 742 mmHg 85%
    19:00 +2°C° 0 mm 3 mps 741 mmHg 87%
    20:00 +2°C° 0 mm 3 mps 741 mmHg 89%
    21:00 +2°C° 0.1 mm 3 mps 740 mmHg 90%
    22:00 +2°C° 0.1 mm 3 mps 740 mmHg 91%
    23:00 +2°C° 0.1 mm 3 mps 739 mmHg 92%

    23 Enero, Miércoles

    Tiempo Temperatura Precipitaciones Viento Presión Humedad
    00:00 +2°C° 0.1 mm 3 mps 738 mmHg 93%
    01:00 +2°C° 0.1 mm 3 mps 738 mmHg 93%
    02:00 +2°C° 0.1 mm 3 mps 737 mmHg 93%
    03:00 +2°C° 0.1 mm 3 mps 736 mmHg 94%
    04:00 +1°C° 0.1 mm 4 mps 735 mmHg 94%
    05:00 +1°C° 0.1 mm 4 mps 734 mmHg 94%
    06:00 +1°C° 1.3 mm 4 mps 733 mmHg 95%
    07:00 +2°C° 1.3 mm 3 mps 733 mmHg 95%
    08:00 +3°C° 1.3 mm 3 mps 732 mmHg 96%
    09:00 +3°C° 0.5 mm 3 mps 732 mmHg 96%
    10:00 +4°C° 0.5 mm 3 mps 731 mmHg 95%
    11:00 +5°C° 0.5 mm 3 mps 730 mmHg 95%
    12:00 +7°C° 0 mm 3 mps 730 mmHg 89%
    13:00 +8°C° 0 mm 2 mps 729 mmHg 83%
    14:00 +10°C° 0 mm 2 mps 728 mmHg 77%
    15:00 +9°C° 0 mm 3 mps 728 mmHg 77%
    16:00 +9°C° 0 mm 3 mps 728 mmHg 76%
    17:00 +8°C° 0 mm 3 mps 728 mmHg 75%
    18:00 +7°C° 0 mm 3 mps 728 mmHg 78%
    19:00 +5°C° 0 mm 3 mps 727 mmHg 80%
    20:00 +5°C° 0 mm 3 mps 727 mmHg 82%
    21:00 +5°C° 0 mm 2 mps 727 mmHg 83%
    22:00 +5°C° 0 mm 2 mps 728 mmHg 84%
    23:00 +5°C° 0 mm 2 mps 728 mmHg 85%
    Mostrar más